Location: Artiguedieu
(43.5000°N, 0.5454°E)
Time: 12:49:44
(UTC+00:00)

Cosmos 2242 Rocket - Pass Details

Date: 06 December 2020
Orbit: 619 x 651 km, 82.5° (Epoch: 28 January)

Event Time Altitude Azimuth Distance (km) Brightness Sun altitude
Rises 06:29:46 0° 351° (N) 2,913 6.7 -8.4°
Reaches altitude 10° 06:32:00 10° 352° (N) 1,999 5.9 -8.0°
Maximum altitude 06:36:26 89° 76° (ENE) 626 3.6 -7.3°
Drops below altitude 10° 06:40:49 10° 173° (S) 1,978 6.6 -6.5°
Sets 06:43:02 0° 173° (S) 2,880 7.5 -6.2°
